Date String (YYYY-MM-DD hh:mm:ss) UTC,Instrument flags,Ambient pressure (hPa),Sample flow (lpm),Bypass flow (lpm),Sample temperature (°C),Ambient temperature (°C),ASC tube jacket temperature (°C),LED temperature (°C),Box temperature (°C),Sample RH (%),Span deviation,Mass concentration (μg/m³),Mass concentration (μg/m³),Mass concentration (μg/m³)
DateTimeUTC,F1_M11,P_M11,Q1_M11,Q2_M11,T1_M11,T2_M11,T3_M11,T4_M11,T5_M11,U1_M11,ZSPAN_M11,X0_M11,X2_M11,X1_M11
2022-01-29 15:00:00,,0829.8,5.01,0.00,22.8,22.1,00.0,31.7,24.5,03.2,0000.0,0000.48,0000.31,0000.26
2022-01-29 15:01:00,,0829.9,5.00,0.00,22.8,22.1,00.0,31.7,24.5,03.3,0000.0,0000.41,0000.30,0000.26
2022-01-29 15:02:00,,0829.8,4.99,0.00,22.8,22.1,00.0,31.7,24.5,03.3,0000.0,0000.46,0000.32,0000.26
2022-01-29 15:03:00,,0829.8,5.00,0.00,22.8,22.1,00.0,31.7,24.5,03.3,0000.0,0000.47,0000.33,0000.27
2022-01-29 15:04:00,,0829.8,4.99,0.00,22.8,22.1,00.0,31.7,24.5,03.3,0000.0,0000.47,0000.33,0000.27
2022-01-29 15:05:00,,0829.8,5.00,0.00,22.8,22.1,00.0,31.7,24.5,03.3,0000.0,0000.51,0000.35,0000.27
2022-01-29 15:06:00,,0829.8,5.00,0.00,22.8,22.1,00.0,31.7,24.5,03.3,0000.0,0000.50,0000.34,0000.27
2022-01-29 15:07:00,,0829.8,5.00,0.00,22.8,22.1,00.0,31.7,24.5,03.3,0000.0,0000.52,0000.35,0000.27
2022-01-29 15:08:00,,0829.8,5.01,0.00,22.8,22.1,00.0,31.7,24.5,03.4,0000.0,0000.63,0000.37,0000.28
2022-01-29 15:09:00,,0829.8,5.00,0.00,22.8,22.1,00.0,31.7,24.6,03.4,0000.0,0000.62,0000.37,0000.28
2022-01-29 15:10:00,,0829.8,5.00,0.00,22.8,22.1,00.0,31.7,24.6,03.4,0000.0,0000.62,0000.38,0000.29
2022-01-29 15:11:00,,0829.8,5.00,0.00,22.8,22.1,00.0,31.7,24.5,03.4,0000.0,0000.63,0000.38,0000.30
2022-01-29 15:12:00,,0829.8,5.00,0.00,22.8,22.1,00.0,31.7,24.6,03.5,0000.0,0000.61,0000.37,0000.29
2022-01-29 15:13:00,,0829.8,5.01,0.00,22.8,22.1,00.0,31.7,24.6,03.5,0000.0,0000.66,0000.36,0000.29
2022-01-29 15:14:00,,0829.8,4.99,0.00,22.8,22.1,00.0,31.7,24.6,03.5,0000.0,0000.72,0000.36,0000.28
2022-01-29 15:15:00,,0829.8,5.00,0.00,22.8,22.1,00.0,31.7,24.6,03.5,0000.0,0000.73,0000.36,0000.28
2022-01-29 15:16:00,,0829.8,5.00,0.00,22.8,22.1,00.0,31.7,24.6,03.5,0000.0,0000.70,0000.34,0000.28
2022-01-29 15:17:00,,0829.8,5.00,0.00,22.9,22.1,00.0,31.7,24.6,03.5,0000.0,0000.74,0000.36,0000.28
2022-01-29 15:18:00,,0829.8,5.01,0.00,22.9,22.2,00.0,31.8,24.6,03.5,0000.0,0000.77,0000.37,0000.28
2022-01-29 15:19:00,,0829.8,4.99,0.00,22.9,22.2,00.0,31.8,24.6,03.6,0000.0,0000.64,0000.35,0000.28
2022-01-29 15:20:00,,0829.8,5.00,0.00,22.9,22.1,00.0,31.8,24.6,03.7,0000.0,0000.68,0000.36,0000.28
2022-01-29 15:21:00,,0829.8,5.00,0.00,22.9,22.1,00.0,31.8,24.6,03.7,0000.0,0000.79,0000.40,0000.27
2022-01-29 15:22:00,,0829.8,5.01,0.00,22.9,22.1,00.0,31.8,24.6,03.6,0000.0,0000.83,0000.42,0000.28
2022-01-29 15:23:00,,0829.8,5.00,0.00,22.9,22.1,00.0,31.8,24.6,03.7,0000.0,0000.83,0000.41,0000.28
2022-01-29 15:24:00,,0829.8,5.00,0.00,22.9,22.1,00.0,31.8,24.6,03.7,0000.0,0000.71,0000.40,0000.28
2022-01-29 15:25:00,,0829.8,4.99,0.00,22.9,22.1,00.0,31.8,24.7,03.7,0000.0,0000.73,0000.40,0000.28
2022-01-29 15:26:00,,0829.8,5.00,0.00,22.9,22.1,00.0,31.8,24.7,03.6,0000.0,0000.80,0000.42,0000.29
2022-01-29 15:27:00,,0829.8,5.00,0.00,22.9,22.2,00.0,31.8,24.7,03.6,0000.0,0000.82,0000.43,0000.29
2022-01-29 15:28:00,,0829.8,5.00,0.00,22.9,22.2,00.0,31.8,24.7,03.6,0000.0,0000.82,0000.43,0000.30
2022-01-29 15:29:00,,0829.8,5.00,0.00,23.0,22.2,00.0,31.8,24.7,03.6,0000.0,0000.79,0000.43,0000.30
2022-01-29 15:30:00,,0829.8,5.00,0.00,23.0,22.2,00.0,31.8,24.7,03.6,0000.0,0000.75,0000.42,0000.31
2022-01-29 15:31:00,,0829.8,5.00,0.00,23.0,22.1,00.0,31.8,24.7,03.6,0000.0,0000.71,0000.41,0000.31
2022-01-29 15:32:00,,0829.8,4.99,0.00,23.0,22.2,00.0,31.9,24.8,03.6,0000.0,0000.66,0000.40,0000.32
2022-01-29 15:33:00,,0829.8,5.00,0.00,23.0,22.2,00.0,31.9,24.8,03.6,0000.0,0000.63,0000.38,0000.32
2022-01-29 15:34:00,,0829.8,5.00,0.00,23.0,22.2,00.0,31.9,24.8,03.7,0000.0,0000.65,0000.40,0000.33
2022-01-29 15:35:00,,0829.8,5.00,0.00,23.0,22.2,00.0,31.9,24.8,03.8,0000.0,0000.68,0000.41,0000.34
2022-01-29 15:36:00,,0829.8,5.00,0.00,23.0,22.2,00.0,31.9,24.8,03.8,0000.0,0000.65,0000.43,0000.35
2022-01-29 15:37:00,,0829.8,5.00,0.00,23.0,22.2,00.0,31.9,24.8,03.8,0000.0,0000.57,0000.42,0000.35
2022-01-29 15:38:00,,0829.8,5.00,0.00,23.1,22.3,00.0,31.9,24.9,03.7,0000.0,0000.64,0000.44,0000.36
2022-01-29 15:39:00,,0829.9,5.00,0.00,23.1,22.2,00.0,31.9,24.9,03.7,0000.0,0000.64,0000.44,0000.36
2022-01-29 15:40:00,,0829.9,4.99,0.00,23.1,22.2,00.0,31.9,24.9,03.7,0000.0,0000.67,0000.46,0000.37
2022-01-29 15:41:00,,0829.9,5.00,0.00,23.1,22.2,00.0,31.9,24.8,03.7,0000.0,0000.72,0000.48,0000.37
2022-01-29 15:42:00,,0829.9,5.00,0.00,23.1,22.3,00.0,31.9,24.9,03.8,0000.0,0000.75,0000.49,0000.37
2022-01-29 15:43:00,,0829.9,5.00,0.00,23.1,22.3,00.0,32.0,24.9,03.8,0000.0,0000.76,0000.49,0000.36
2022-01-29 15:44:00,,0829.9,5.01,0.00,23.1,22.3,00.0,32.0,24.9,03.8,0000.0,0000.74,0000.49,0000.36
2022-01-29 15:45:00,,0829.8,5.00,0.00,23.1,22.3,00.0,32.0,24.9,04.0,0000.0,0000.74,0000.48,0000.36
2022-01-29 15:46:00,,0829.8,4.99,0.00,23.1,22.3,00.0,32.0,24.9,04.0,0000.0,0000.73,0000.47,0000.35
2022-01-29 15:47:00,,0829.9,5.01,0.00,23.2,22.3,00.0,32.0,24.9,03.8,0000.0,0000.71,0000.47,0000.34
2022-01-29 15:48:00,,0829.8,5.00,0.00,23.2,22.3,00.0,32.0,24.9,03.8,0000.0,0000.72,0000.47,0000.34
2022-01-29 15:49:00,,0829.8,5.00,0.00,23.2,22.3,00.0,32.0,25.0,03.8,0000.0,0000.71,0000.46,0000.34
2022-01-29 15:50:00,,0829.8,5.01,0.00,23.2,22.4,00.0,32.0,25.0,03.8,0000.0,0000.65,0000.44,0000.33
2022-01-29 15:51:00,,0829.8,5.00,0.00,23.2,22.4,00.0,32.0,25.0,03.9,0000.0,0000.62,0000.42,0000.32
2022-01-29 15:52:00,,0829.9,4.99,0.00,23.2,22.4,00.0,32.1,25.0,04.0,0000.0,0000.60,0000.41,0000.31
2022-01-29 15:53:00,,0829.8,5.00,0.00,23.2,22.4,00.0,32.1,25.0,04.1,0000.0,0000.64,0000.41,0000.31
2022-01-29 15:54:00,,0829.9,4.99,0.00,23.3,22.4,00.0,32.1,25.0,04.3,0000.0,0000.60,0000.40,0000.31
2022-01-29 15:55:00,,0829.9,5.00,0.00,23.3,22.4,00.0,32.1,25.0,04.3,0000.0,0000.63,0000.40,0000.31
2022-01-29 15:56:00,,0829.9,5.00,0.00,23.3,22.4,00.0,32.1,25.0,04.2,0000.0,0000.62,0000.40,0000.30
2022-01-29 15:57:00,,0829.8,5.01,0.00,23.3,22.4,00.0,32.1,25.0,04.2,0000.0,0000.61,0000.39,0000.30
2022-01-29 15:58:00,,0829.8,4.99,0.00,23.3,22.4,00.0,32.1,25.1,04.3,0000.0,0000.58,0000.38,0000.30
2022-01-29 15:59:00,,0829.8,4.99,0.00,23.3,22.5,00.0,32.1,25.1,04.3,0000.0,0000.57,0000.37,0000.29
